Time,TemperatureF,DewpointF,PressureIn,WindDirection,WindDirectionDegrees,WindSpeedMPH,WindSpeedGustMPH,Humidity,HourlyPrecipIn,Conditions,Clouds,dailyrainin,SoftwareType,DateUTC
2013-07-24 00:02:00,63.0,58.0,-100.00,East,100,0.0,1.0,83,0.00,,,-99.99,,2013-07-24 05:02:00,
2013-07-24 00:11:00,63.0,58.0,-100.00,East,100,0.0,1.0,83,0.00,,,-99.99,,2013-07-24 05:11:00,
2013-07-24 00:52:00,62.0,58.0,-100.00,East,85,0.0,0.0,85,0.00,,,-99.99,,2013-07-24 05:52:00,
2013-07-24 01:01:00,63.0,58.0,-100.00,ENE,75,0.0,0.0,85,0.00,,,-99.99,,2013-07-24 06:01:00,
2013-07-24 01:11:00,63.0,58.0,-100.00,ENE,75,0.0,0.0,85,0.00,,,-99.99,,2013-07-24 06:11:00,
2013-07-24 01:53:00,62.0,58.0,-100.00,ENE,75,0.0,1.0,88,0.00,,,-99.99,,2013-07-24 06:53:00,
2013-07-24 02:02:00,62.0,58.0,-100.00,ENE,75,0.0,0.0,89,0.00,,,-99.99,,2013-07-24 07:02:00,
2013-07-24 02:12:00,62.0,58.0,-100.00,ENE,75,0.0,0.0,89,0.00,,,-99.99,,2013-07-24 07:12:00,
2013-07-24 02:53:00,61.0,59.0,-100.00,ENE,75,0.0,0.0,93,0.00,,,-99.99,,2013-07-24 07:53:00,
2013-07-24 03:02:00,61.0,59.0,-100.00,ENE,65,0.0,0.0,94,0.00,,,-99.99,,2013-07-24 08:02:00,
2013-07-24 03:12:00,61.0,59.0,-100.00,ENE,65,0.0,0.0,94,0.00,,,-99.99,,2013-07-24 08:12:00,
2013-07-24 03:52:00,59.0,58.0,-100.00,ENE,65,0.0,0.0,96,0.00,,,-99.99,,2013-07-24 08:52:00,
2013-07-24 04:02:00,57.0,56.0,-100.00,ENE,65,0.0,0.0,96,0.00,,,-99.99,,2013-07-24 09:02:00,
2013-07-24 04:12:00,57.0,56.0,-100.00,ENE,65,0.0,0.0,96,0.00,,,-99.99,,2013-07-24 09:12:00,
2013-07-24 04:53:00,54.0,53.0,-100.00,ENE,65,0.0,0.0,98,0.00,,,-99.99,,2013-07-24 09:53:00,
2013-07-24 05:53:00,55.0,55.0,-100.00,SSE,155,0.0,1.0,98,0.00,,,-99.99,,2013-07-24 10:53:00,
2013-07-24 06:02:00,53.0,52.0,-100.00,SSE,160,0.0,0.0,98,0.00,,,-99.99,,2013-07-24 11:02:00,
2013-07-24 06:12:00,53.0,52.0,-100.00,SSE,160,0.0,0.0,98,0.00,,,-99.99,,2013-07-24 11:12:00,
2013-07-24 06:52:00,58.0,57.0,-100.00,SW,220,0.0,1.0,98,0.00,,,-99.99,,2013-07-24 11:52:00,
2013-07-24 07:02:00,58.0,58.0,-100.00,SE,145,1.0,2.0,98,0.00,,,-99.99,,2013-07-24 12:02:00,
2013-07-24 07:12:00,58.0,58.0,-100.00,SE,145,1.0,2.0,98,0.00,,,-99.99,,2013-07-24 12:12:00,
2013-07-24 07:52:00,59.0,59.0,-100.00,South,190,0.0,2.0,98,0.00,,,-99.99,,2013-07-24 12:52:00,
2013-07-24 08:02:00,60.0,59.0,-100.00,SSW,195,1.0,2.0,98,0.00,,,-99.99,,2013-07-24 13:02:00,
2013-07-24 08:12:00,60.0,59.0,-100.00,SSW,195,1.0,2.0,98,0.00,,,-99.99,,2013-07-24 13:12:00,
2013-07-24 08:53:00,62.0,62.0,-100.00,SSW,200,1.0,4.0,96,0.00,,,-99.99,,2013-07-24 13:53:00,
2013-07-24 09:02:00,64.0,62.0,-100.00,SSE,165,1.0,6.0,92,0.00,,,-99.99,,2013-07-24 14:02:00,
2013-07-24 09:12:00,64.0,62.0,-100.00,SSE,165,1.0,6.0,92,0.00,,,-99.99,,2013-07-24 14:12:00,
2013-07-24 09:55:00,68.0,58.0,-100.00,SE,145,1.0,6.0,70,0.00,,,-99.99,,2013-07-24 14:55:00,
2013-07-24 10:02:00,69.0,58.0,-100.00,SSE,155,1.0,6.0,69,0.00,,,-99.99,,2013-07-24 15:02:00,
2013-07-24 10:12:00,69.0,58.0,-100.00,SSE,155,1.0,6.0,69,0.00,,,-99.99,,2013-07-24 15:12:00,
2013-07-24 10:43:00,71.0,58.0,-100.00,SW,225,4.0,6.0,64,0.00,,,-99.99,,2013-07-24 15:43:00,
2013-07-24 10:53:00,72.0,58.0,-100.00,SW,235,3.0,7.0,60,0.00,,,-99.99,,2013-07-24 15:53:00,
2013-07-24 11:02:00,73.0,58.0,-100.00,SSE,165,4.0,9.0,59,0.00,,,-99.99,,2013-07-24 16:02:00,
2013-07-24 11:12:00,73.0,58.0,-100.00,SSE,165,4.0,9.0,59,0.00,,,-99.99,,2013-07-24 16:12:00,
2013-07-24 11:32:00,74.0,56.0,-100.00,WSW,255,4.0,8.0,51,0.00,,,-99.99,,2013-07-24 16:32:00,
2013-07-24 11:43:00,74.0,56.0,-100.00,WSW,255,4.0,8.0,51,0.00,,,-99.99,,2013-07-24 16:43:00,
2013-07-24 11:53:00,76.0,56.0,-100.00,SE,135,4.0,9.0,49,0.00,,,-99.99,,2013-07-24 16:53:00,
2013-07-24 12:02:00,76.0,56.0,-100.00,South,170,4.0,9.0,50,0.00,,,-99.99,,2013-07-24 17:02:00,
2013-07-24 12:12:00,76.0,56.0,-100.00,South,170,4.0,9.0,50,0.00,,,-99.99,,2013-07-24 17:12:00,
2013-07-24 12:53:00,78.0,54.0,-100.00,NW,310,2.0,9.0,43,0.00,,,-99.99,,2013-07-24 17:53:00,
2013-07-24 13:02:00,78.0,54.0,-100.00,West,260,6.0,9.0,43,0.00,,,-99.99,,2013-07-24 18:02:00,
2013-07-24 13:12:00,78.0,54.0,-100.00,West,260,6.0,9.0,43,0.00,,,-99.99,,2013-07-24 18:12:00,
2013-07-24 14:53:00,79.0,55.0,-100.00,West,260,3.0,9.0,43,0.00,,,-99.99,,2013-07-24 19:53:00,
2013-07-24 15:02:00,81.0,56.0,-100.00,West,275,6.0,9.0,43,0.00,,,-99.99,,2013-07-24 20:02:00,
2013-07-24 15:13:00,81.0,56.0,-100.00,West,275,6.0,9.0,43,0.00,,,-99.99,,2013-07-24 20:13:00,
2013-07-24 15:32:00,80.0,54.0,-100.00,South,185,5.0,9.0,41,0.00,,,-99.99,,2013-07-24 20:32:00,
2013-07-24 15:53:00,79.0,54.0,-100.00,WSW,255,4.0,9.0,42,0.00,,,-99.99,,2013-07-24 20:53:00,
2013-07-24 16:02:00,79.0,55.0,-100.00,SSW,200,3.0,9.0,43,0.00,,,-99.99,,2013-07-24 21:02:00,
2013-07-24 16:12:00,79.0,55.0,-100.00,SSW,200,3.0,9.0,43,0.00,,,-99.99,,2013-07-24 21:12:00,
2013-07-24 16:53:00,80.0,56.0,-100.00,West,260,5.0,9.0,43,0.00,,,-99.99,,2013-07-24 21:53:00,
2013-07-24 17:02:00,81.0,56.0,-100.00,WSW,240,5.0,9.0,42,0.00,,,-99.99,,2013-07-24 22:02:00,
2013-07-24 17:12:00,81.0,56.0,-100.00,WSW,240,5.0,9.0,42,0.00,,,-99.99,,2013-07-24 22:12:00,
2013-07-24 17:53:00,83.0,58.0,-100.00,SW,220,4.0,9.0,43,0.00,,,-99.99,,2013-07-24 22:53:00,
2013-07-24 18:02:00,83.0,59.0,-100.00,South,185,5.0,9.0,43,0.00,,,-99.99,,2013-07-24 23:02:00,
2013-07-24 18:12:00,83.0,59.0,-100.00,South,185,5.0,9.0,43,0.00,,,-99.99,,2013-07-24 23:12:00,
2013-07-24 18:52:00,85.0,55.0,-100.00,West,270,3.0,9.0,35,0.00,,,-99.99,,2013-07-24 23:52:00,
2013-07-24 19:02:00,84.0,54.0,-100.00,WNW,300,5.0,9.0,36,0.00,,,-99.99,,2013-07-25 00:02:00,
2013-07-24 19:12:00,84.0,54.0,-100.00,WNW,300,5.0,9.0,36,0.00,,,-99.99,,2013-07-25 00:12:00,
2013-07-24 19:53:00,82.0,56.0,-100.00,NW,325,4.0,9.0,40,0.00,,,-99.99,,2013-07-25 00:53:00,
2013-07-24 20:02:00,81.0,56.0,-100.00,NNW,330,5.0,22.0,41,0.00,,,-99.99,,2013-07-25 01:02:00,
2013-07-24 20:12:00,81.0,56.0,-100.00,NNW,330,5.0,22.0,41,0.00,,,-99.99,,2013-07-25 01:12:00,
2013-07-24 20:53:00,79.0,55.0,-100.00,NNW,330,6.0,9.0,44,0.00,,,-99.99,,2013-07-25 01:53:00,
2013-07-24 21:02:00,78.0,56.0,-100.00,NNW,335,5.0,9.0,46,0.00,,,-99.99,,2013-07-25 02:02:00,
2013-07-24 21:12:00,78.0,56.0,-100.00,NNW,335,5.0,9.0,46,0.00,,,-99.99,,2013-07-25 02:12:00,
2013-07-24 21:53:00,74.0,57.0,-100.00,North,350,2.0,6.0,54,0.00,,,-99.99,,2013-07-25 02:53:00,
2013-07-24 22:02:00,74.0,58.0,-100.00,NNW,335,1.0,4.0,57,0.00,,,-99.99,,2013-07-25 03:02:00,
2013-07-24 22:14:00,74.0,58.0,-100.00,NNW,335,1.0,4.0,57,0.00,,,-99.99,,2013-07-25 03:14:00,
2013-07-24 22:52:00,71.0,60.0,-100.00,NW,305,2.0,2.0,66,0.00,,,-99.99,,2013-07-25 03:52:00,
2013-07-24 23:02:00,71.0,60.0,-100.00,NNW,335,1.0,2.0,68,0.00,,,-99.99,,2013-07-25 04:02:00,
2013-07-24 23:12:00,71.0,60.0,-100.00,NNW,335,1.0,2.0,68,0.00,,,-99.99,,2013-07-25 04:12:00,
2013-07-24 23:53:00,69.0,62.0,-100.00,North,0,2.0,5.0,78,0.00,,,-99.99,,2013-07-25 04:53:00,